Location: Harwich
(41.7160°N, 69.9939°W)
Time: 14:35:27
(UTC+01:00)

A-11 Canister half - Pass Details

Date: 08 December 2023
Orbit: 1526 x 1682 km, 47.3° (Epoch: 01 March)

Event Time Altitude Azimuth Distance (km) Brightness Sun altitude
Rises 08:38:38 0° 288° (WNW) 4,864 - -46.8°
Reaches altitude 10° 08:44:04 10° 264° (W) 3,838 - -45.8°
Maximum altitude 08:48:07 13° 239° (WSW) 3,541 - -45.0°
Drops below altitude 10° 08:52:09 10° 213° (SSW) 3,777 - -44.3°
Sets 08:57:27 0° 189° (S) 4,723 - -43.3°
